TERRESTAR-1

Last updated on Mon Jul 07 2025 00:02:43 GMT+0000 (Coordinated Universal Time)

1 35496U 09035A 25187.11382860 -.00000044 00000+0 00000+0 0 9993 2 35496 4.9092 48.6808 0002525 46.4956 119.1245 1.00272328 58668
UTC large
Height (km)
Speed (km/s)
/
Latitude / Longitude
Inclination (degrees)
Orbital Period (minutes)
Azimuth
Elevation
Range (km)
Doppler Factor

Next 0 passes for location: London (51.5072 / 0.1276)

Sorry there are no passes over London.